• In Lithuania
  • List of Countries
  • For 7 days
  • Water Temperature
  • Satellite Maps
  • Weather Map
  • Weather Widgets
  • user-avatar
    Login

    Hourly Weather Igls

    Today, 26 September, Tuesday

    Time Temperature Precipitation Wind Pressure Humidity
    00:00 +8°C° 0 mm 1 mps 686 mmHg 88%
    01:00 +8°C° 0 mm 1 mps 686 mmHg 90%
    02:00 +8°C° 0 mm 1 mps 686 mmHg 89%
    03:00 +8°C° 0 mm 1 mps 686 mmHg 89%
    04:00 +7°C° 0 mm 1 mps 686 mmHg 89%
    05:00 +8°C° 0 mm 1 mps 686 mmHg 88%
    06:00 +8°C° 0 mm 1 mps 687 mmHg 88%
    07:00 +10°C° 0 mm 1 mps 687 mmHg 84%
    08:00 +12°C° 0 mm 1 mps 688 mmHg 76%
    09:00 +14°C° 0 mm 1 mps 688 mmHg 69%
    10:00 +15°C° 0 mm 0 mps 688 mmHg 61%
    11:00 +18°C° 0 mm 1 mps 688 mmHg 59%
    12:00 +18°C° 0 mm 1 mps 688 mmHg 57%
    13:00 +19°C° 0 mm 1 mps 688 mmHg 55%
    14:00 +18°C° 0.2 mm 1 mps 688 mmHg 60%
    15:00 +18°C° 0.2 mm 1 mps 688 mmHg 64%
    16:00 +16°C° 0.2 mm 1 mps 688 mmHg 69%
    17:00 +14°C° 0.2 mm 1 mps 688 mmHg 76%
    18:00 +11°C° 0.2 mm 0 mps 688 mmHg 83%
    19:00 +9°C° 0.2 mm 0 mps 688 mmHg 90%
    20:00 +9°C° 0 mm 0 mps 688 mmHg 90%
    21:00 +10°C° 0 mm 1 mps 688 mmHg 90%
    22:00 +9°C° 0 mm 1 mps 688 mmHg 90%
    23:00 +9°C° 0 mm 1 mps 688 mmHg 89%

    Tomorrow, 27 September, Wednesday

    Time Temperature Precipitation Wind Pressure Humidity
    00:00 +9°C° 0 mm 1 mps 688 mmHg 89%
    01:00 +9°C° 0 mm 1 mps 688 mmHg 88%
    02:00 +8°C° 0 mm 1 mps 688 mmHg 88%
    03:00 +8°C° 0 mm 1 mps 688 mmHg 88%
    04:00 +8°C° 0 mm 1 mps 688 mmHg 88%
    05:00 +8°C° 0 mm 1 mps 688 mmHg 87%
    06:00 +9°C° 0 mm 1 mps 689 mmHg 86%
    07:00 +9°C° 0 mm 1 mps 689 mmHg 85%
    08:00 +12°C° 0 mm 1 mps 689 mmHg 77%
    09:00 +14°C° 0 mm 1 mps 690 mmHg 69%
    10:00 +18°C° 0 mm 1 mps 690 mmHg 62%
    11:00 +19°C° 0 mm 1 mps 690 mmHg 59%
    12:00 +19°C° 0 mm 1 mps 690 mmHg 56%
    13:00 +20°C° 0 mm 1 mps 690 mmHg 54%
    14:00 +20°C° 0 mm 1 mps 690 mmHg 57%
    15:00 +19°C° 0 mm 1 mps 690 mmHg 60%
    16:00 +19°C° 0 mm 1 mps 690 mmHg 63%
    17:00 +16°C° 0 mm 1 mps 689 mmHg 71%
    18:00 +13°C° 0 mm 1 mps 689 mmHg 80%
    19:00 +11°C° 0 mm 1 mps 689 mmHg 89%
    20:00 +11°C° 0 mm 1 mps 689 mmHg 88%
    21:00 +10°C° 0 mm 1 mps 690 mmHg 88%
    22:00 +10°C° 0 mm 1 mps 690 mmHg 88%
    23:00 +10°C° 0 mm 1 mps 690 mmHg 87%

    Day after tomorrow, 28 September, Thursday

    Time Temperature Precipitation Wind Pressure Humidity
    00:00 +10°C° 0 mm 1 mps 690 mmHg 86%
    01:00 +9°C° 0 mm 1 mps 690 mmHg 86%
    02:00 +9°C° 0 mm 1 mps 690 mmHg 85%
    03:00 +9°C° 0 mm 1 mps 690 mmHg 85%
    04:00 +9°C° 0 mm 1 mps 690 mmHg 84%
    05:00 +10°C° 0 mm 1 mps 690 mmHg 83%
    06:00 +10°C° 0 mm 1 mps 690 mmHg 82%
    07:00 +11°C° 0 mm 1 mps 691 mmHg 80%
    08:00 +13°C° 0 mm 1 mps 691 mmHg 73%
    09:00 +16°C° 0 mm 1 mps 692 mmHg 65%
    10:00 +17°C° 0 mm 0 mps 692 mmHg 57%
    11:00 +20°C° 0 mm 1 mps 692 mmHg 55%
    12:00 +21°C° 0 mm 1 mps 692 mmHg 54%
    13:00 +21°C° 0 mm 1 mps 692 mmHg 52%
    14:00 +21°C° 0 mm 1 mps 692 mmHg 55%
    15:00 +20°C° 0 mm 1 mps 691 mmHg 58%
    16:00 +20°C° 0 mm 1 mps 691 mmHg 62%
    17:00 +16°C° 0 mm 1 mps 691 mmHg 71%
    18:00 +14°C° 0 mm 1 mps 691 mmHg 80%
    19:00 +11°C° 0 mm 1 mps 691 mmHg 89%
    20:00 +11°C° 0 mm 1 mps 691 mmHg 89%
    21:00 +11°C° 0 mm 1 mps 691 mmHg 89%
    22:00 +10°C° 0 mm 1 mps 691 mmHg 90%
    23:00 +10°C° 0 mm 1 mps 691 mmHg 88%

    29 September, Friday

    Time Temperature Precipitation Wind Pressure Humidity
    00:00 +10°C° 0 mm 1 mps 691 mmHg 87%
    01:00 +10°C° 0 mm 1 mps 690 mmHg 86%
    02:00 +10°C° 0 mm 1 mps 690 mmHg 85%
    03:00 +10°C° 0 mm 1 mps 690 mmHg 84%
    04:00 +10°C° 0 mm 1 mps 690 mmHg 83%
    05:00 +10°C° 0 mm 1 mps 690 mmHg 82%
    06:00 +11°C° 0 mm 1 mps 690 mmHg 81%
    07:00 +11°C° 0 mm 1 mps 690 mmHg 80%
    08:00 +14°C° 0 mm 1 mps 690 mmHg 72%
    09:00 +16°C° 0 mm 1 mps 691 mmHg 64%
    10:00 +19°C° 0 mm 1 mps 691 mmHg 56%
    11:00 +20°C° 0.1 mm 1 mps 691 mmHg 57%
    12:00 +20°C° 0.1 mm 1 mps 691 mmHg 58%
    13:00 +20°C° 0.1 mm 1 mps 690 mmHg 58%
    14:00 +19°C° 0.7 mm 1 mps 690 mmHg 66%
    15:00 +18°C° 0.7 mm 1 mps 690 mmHg 74%
    16:00 +16°C° 0.7 mm 1 mps 689 mmHg 81%
    17:00 +15°C° 0.4 mm 1 mps 689 mmHg 86%
    18:00 +14°C° 0.4 mm 1 mps 689 mmHg 90%
    19:00 +13°C° 0.4 mm 1 mps 689 mmHg 94%
    20:00 +12°C° 0.1 mm 1 mps 689 mmHg 95%
    21:00 +12°C° 0.1 mm 1 mps 689 mmHg 95%
    22:00 +11°C° 0.1 mm 1 mps 689 mmHg 96%
    23:00 +10°C° 0 mm 1 mps 689 mmHg 95%

    30 September, Saturday

    Time Temperature Precipitation Wind Pressure Humidity
    00:00 +10°C° 0 mm 1 mps 689 mmHg 95%
    01:00 +10°C° 0 mm 1 mps 688 mmHg 95%
    02:00 +9°C° 0 mm 1 mps 688 mmHg 94%
    03:00 +9°C° 0 mm 1 mps 688 mmHg 94%
    04:00 +9°C° 0 mm 1 mps 688 mmHg 93%
    05:00 +9°C° 0 mm 1 mps 688 mmHg 92%
    06:00 +10°C° 0 mm 1 mps 688 mmHg 92%
    07:00 +10°C° 0 mm 1 mps 688 mmHg 91%
    08:00 +12°C° 0 mm 1 mps 688 mmHg 82%
    09:00 +15°C° 0 mm 1 mps 688 mmHg 73%
    10:00 +17°C° 0 mm 0 mps 688 mmHg 64%
    11:00 +19°C° 0 mm 1 mps 688 mmHg 61%
    12:00 +20°C° 0 mm 1 mps 688 mmHg 57%
    13:00 +21°C° 0 mm 1 mps 688 mmHg 54%
    14:00 +20°C° 0.1 mm 1 mps 687 mmHg 58%
    15:00 +20°C° 0.1 mm 1 mps 687 mmHg 62%
    16:00 +18°C° 0.1 mm 2 mps 687 mmHg 65%
    17:00 +16°C° 0.1 mm 1 mps 686 mmHg 75%
    18:00 +14°C° 0.1 mm 1 mps 686 mmHg 84%
    19:00 +11°C° 0.1 mm 1 mps 686 mmHg 94%
    20:00 +11°C° 0 mm 1 mps 686 mmHg 94%
    21:00 +11°C° 0 mm 1 mps 686 mmHg 94%
    22:00 +11°C° 0 mm 1 mps 686 mmHg 94%
    23:00 +10°C° 0 mm 1 mps 686 mmHg 94%

    1 October, Sunday

    Time Temperature Precipitation Wind Pressure Humidity
    00:00 +10°C° 0 mm 1 mps 686 mmHg 93%
    01:00 +10°C° 0 mm 1 mps 685 mmHg 93%
    02:00 +10°C° 0 mm 1 mps 685 mmHg 93%
    03:00 +10°C° 0 mm 1 mps 685 mmHg 93%
    04:00 +9°C° 0 mm 1 mps 685 mmHg 93%
    05:00 +10°C° 0 mm 1 mps 686 mmHg 92%
    06:00 +10°C° 0 mm 1 mps 686 mmHg 92%
    07:00 +10°C° 0 mm 1 mps 686 mmHg 91%
    08:00 +12°C° 0 mm 1 mps 686 mmHg 83%
    09:00 +15°C° 0 mm 1 mps 687 mmHg 75%
    10:00 +18°C° 0 mm 1 mps 687 mmHg 67%
    11:00 +19°C° 0 mm 1 mps 687 mmHg 64%
    12:00 +19°C° 0 mm 1 mps 687 mmHg 61%
    13:00 +19°C° 0 mm 2 mps 687 mmHg 57%
    14:00 +18°C° 0.1 mm 2 mps 687 mmHg 61%
    15:00 +18°C° 0.1 mm 2 mps 687 mmHg 65%
    16:00 +17°C° 0.1 mm 2 mps 687 mmHg 69%
    17:00 +15°C° 0 mm 2 mps 687 mmHg 78%
    18:00 +13°C° 0 mm 1 mps 687 mmHg 87%
    19:00 +11°C° 0 mm 1 mps 687 mmHg 96%
    20:00 +11°C° 0 mm 1 mps 687 mmHg 96%
    21:00 +11°C° 0 mm 1 mps 687 mmHg 97%
    22:00 +10°C° 0 mm 1 mps 687 mmHg 97%
    23:00 +10°C° 0 mm 1 mps 687 mmHg 97%
    Show more